#timestamp,LO_Frequency,Hit,StdDev 
1576274415.0,286047002.1,N
1576274415.9,286047002.1,N
1576274435.8,286047002.7,N
1576274455.6,286047002.3,N
1576274475.4,286047002.6,N
1576274495.3,286047000.2,N
1576274515.1,286047002.2,N
1576274535.8,286046999.9,N
1576274555.7,286047002.8,N
1576274575.5,286047002.8,N
1576274595.3,286047001.9,N
1576274615.2,286047001.9,N
1576274635.0,286047002.6,N
1576274635.9,286047002.6,N
1576274655.8,286047002.8,N
1576274675.6,286047002.6,N
1576274695.4,286047002.5,N
1576274715.3,286047003.4,N
1576274735.1,286047004.0,Y
1576274755.9,286047001.1,P
1576274775.7,286047001.0,N
1576274795.5,286046998.7,P
1576274815.4,286046998.7,N
1576274835.2,286047001.1,N
1576274855.0,286046999.0,N
1576274855.9,286046999.0,N
1576274875.8,286047000.6,N
1576274895.6,286046998.7,N
1576274915.5,286047000.1,N
1576274935.3,286047004.2,Y
1576274955.1,286047002.7,P
1576274975.9,286047000.6,N
1576274995.7,286046998.9,N
1576275015.5,286047001.2,N
1576275035.4,286046998.8,N
1576275055.2,286047001.2,N
1576275075.1,286046998.3,N
1576275076.0,286046998.3,N
1576275095.8,286047000.9,N
1576275115.6,286047000.9,N
1576275135.5,286047000.8,N
1576275155.3,286046998.3,N
1576275175.1,286047001.0,N
1576275195.9,286047002.7,N
1576275215.7,286047000.8,N
1576275235.6,286046998.3,N
1576275255.4,286046998.8,N
1576275275.2,286046996.7,N
1576275295.1,286046996.9,N
1576275296.0,286046996.9,N
1576275315.8,286046996.8,N
1576275335.7,286046997.9,N
1576275355.5,286046996.9,N
1576275375.3,286046997.5,N
1576275395.2,286046997.1,N
1576275415.0,286046997.3,N
1576275415.9,286046997.3,N
1576275435.8,286046997.4,N
1576275455.6,286046996.9,N
1576275475.4,286046999.0,N
1576275495.3,286046998.8,N
1576275515.1,286046998.8,N
1576275535.8,286046999.2,N
1576275555.7,286047001.2,N
1576275575.5,286046998.4,N
1576275595.4,286046998.5,N
1576275615.2,286046999.0,N
1576275635.0,286047000.9,N
1576275635.9,286047000.9,N
1576275655.8,286046998.4,N
1576275675.6,286046996.6,N
1576275695.4,286046997.8,N
1576275715.3,286046997.2,N
1576275735.1,286046997.0,N
1576275755.9,286046998.6,N
1576275775.7,286046996.8,N
1576275795.5,286046999.5,N
1576275815.4,286046998.3,N
1576275835.2,286046998.4,N
1576275855.0,286046996.7,N
1576275855.9,286046996.7,N
1576275875.8,286046998.9,N
1576275895.6,286046996.5,N
1576275915.5,286046995.4,Y
1576275935.3,286046999.6,P
1576275955.1,286046999.1,N
1576275975.9,286046998.3,N
1576275995.7,286046999.6,N
1576276015.5,286046998.4,N
1576276035.4,286046997.8,Y
1576276055.2,286046998.7,P
1576276075.1,286046998.8,P
1576276076.0,286046998.8,P
1576276095.8,286047000.8,Y
1576276115.6,286047002.0,P
1576276135.5,286047002.1,N
1576276155.3,286047002.8,N
1576276175.2,286047002.4,N
1576276195.9,286046999.8,N
1576276215.7,286047000.7,N
1576276235.6,286047000.7,N
1576276255.4,286047002.6,N
1576276275.2,286047001.5,N
1576276295.1,286046999.7,N
1576276296.0,286046999.7,N
1576276315.8,286047002.2,N
1576276335.7,286047002.7,N
1576276355.5,286047000.1,N
1576276375.3,286047000.5,N
1576276395.2,286046999.9,N
1576276415.9,286047000.7,N
1576276435.7,286046999.9,N
1576276455.6,286047000.9,N
1576276475.4,286046998.5,N
1576276495.2,286046998.4,N
1576276515.1,286046999.1,N
1576276516.0,286046999.1,N
1576276535.8,286046998.2,N
1576276555.7,286046999.8,N
1576276575.5,286047000.1,N
1576276595.3,286047002.4,N
1576276615.2,286047000.2,N
1576276635.0,286047000.7,N
1576276635.9,286047000.7,N
1576276655.7,286046999.8,N
1576276675.6,286046998.5,N
1576276695.4,286047000.7,N
1576276715.3,286047000.6,N
1576276735.1,286047000.4,N
1576276736.0,286047000.4,N
1576276755.8,286047002.2,N
1576276775.7,286047002.4,N
1576276795.5,286047002.6,N
1576276815.3,286047002.3,N
1576276835.2,286046999.7,N
1576276855.0,286046999.8,N
1576276855.9,286046999.8,N
1576276875.8,286047001.8,N
1576276895.6,286047003.8,Y
1576276915.4,286047002.4,P
1576276935.3,286047011.9,P
1576276955.1,286047001.8,N
1576276975.8,286047002.7,N
1576276995.7,286047000.5,N
1576277015.5,286047001.4,N
1576277035.4,286047004.1,N
1576277055.2,286047002.5,N
1576277075.0,286047002.3,N
1576277075.9,286047002.3,N
1576277095.8,286047002.8,N
1576277115.6,286047002.8,N
1576277135.4,286047002.6,N
1576277155.3,286047001.0,N
1576277175.1,286047000.7,N
1576277195.9,286047000.6,N
1576277215.7,286047002.4,N
1576277235.5,286046999.9,N
1576277255.4,286047002.5,N
1576277275.2,286047002.8,N
1576277295.0,286047002.4,N
1576277295.9,286047002.4,N
1576277315.8,286046999.8,N
1576277335.6,286047002.7,N
1576277355.5,286046999.7,N
1576277375.3,286047002.9,N
1576277395.1,286047004.6,N
1576277415.9,286047003.3,N
1576277435.7,286047002.9,N
1576277455.5,286047005.0,N
1576277475.4,286047004.7,N
1576277495.2,286047003.5,N
1576277515.1,286047003.6,N
1576277516.0,286047003.6,N
1576277535.8,286047001.9,N
1576277555.6,286047001.4,N
1576277575.5,286047000.6,N
1576277595.3,286046999.9,N
1576277615.1,286047000.1,N
1576277635.9,286047000.7,N
1576277655.7,286047001.0,N
1576277675.6,286047002.3,N
1576277695.4,286047002.4,N
1576277715.2,286047001.5,N
1576277735.1,286047004.3,N
1576277736.0,286047004.3,N
1576277755.8,286047004.2,N
1576277775.7,286047005.5,Y
1576277795.5,286047002.1,P
1576277815.3,286047002.7,P
1576277835.2,286047002.2,P
1576277855.0,286047001.5,Y
1576277855.9,286047001.5,P
1576277875.8,286046997.0,P
1576277895.6,286046999.3,N
1576277915.4,286046998.5,N
1576277935.3,286046998.7,N
1576277955.1,286046999.3,N
1576277975.8,286046996.8,N
1576277995.7,286046999.0,N
